Time,TemperatureF,DewpointF,PressureIn,WindDirection,WindDirectionDegrees,WindSpeedMPH,WindSpeedGustMPH,Humidity,HourlyPrecipIn,Conditions,Clouds,dailyrainin,SoftwareType,DateUTC
2013-08-21 00:13:00,62.7,63.0,30.09,North,359,0.0,-999.0,100,-99.99,,,0.00,weatherlink.com 1.10,2013-08-21 04:13:00,
2013-08-21 00:28:00,63.2,63.0,30.08,North,357,0.0,-999.0,100,-99.99,,,0.00,weatherlink.com 1.10,2013-08-21 04:28:00,
2013-08-21 00:43:00,63.4,63.0,30.08,North,359,0.0,-999.0,100,-99.99,,,0.00,weatherlink.com 1.10,2013-08-21 04:43:00,
2013-08-21 00:58:00,63.5,64.0,30.08,North,359,0.0,-999.0,100,-99.99,,,0.00,weatherlink.com 1.10,2013-08-21 04:58:00,
2013-08-21 01:13:00,63.7,64.0,30.07,North,0,0.0,-999.0,100,-99.99,,,0.00,weatherlink.com 1.10,2013-08-21 05:13:00,
2013-08-21 01:28:00,63.5,64.0,30.06,WSW,253,0.0,-999.0,100,-99.99,,,0.00,weatherlink.com 1.10,2013-08-21 05:28:00,
2013-08-21 01:44:00,63.5,64.0,30.05,WSW,253,0.0,-999.0,100,-99.99,,,0.00,weatherlink.com 1.10,2013-08-21 05:44:00,
2013-08-21 01:59:00,63.2,63.0,30.06,WSW,253,0.0,-999.0,100,-99.99,,,0.00,weatherlink.com 1.10,2013-08-21 05:59:00,
2013-08-21 02:14:00,63.1,63.0,30.06,WSW,253,0.0,-999.0,100,-99.99,,,0.00,weatherlink.com 1.10,2013-08-21 06:14:00,
2013-08-21 02:29:00,62.9,63.0,30.05,WSW,253,0.0,-999.0,100,-99.99,,,0.00,weatherlink.com 1.10,2013-08-21 06:29:00,
2013-08-21 02:44:00,62.3,62.0,30.05,WSW,253,0.0,-999.0,100,-99.99,,,0.00,weatherlink.com 1.10,2013-08-21 06:44:00,
2013-08-21 02:59:00,62.1,62.0,30.05,WSW,253,0.0,-999.0,100,-99.99,,,0.00,weatherlink.com 1.10,2013-08-21 06:59:00,
2013-08-21 03:14:00,62.0,62.0,30.05,WSW,253,0.0,-999.0,100,-99.99,,,0.00,weatherlink.com 1.10,2013-08-21 07:14:00,
2013-08-21 03:29:00,61.8,62.0,30.05,WSW,253,0.0,-999.0,100,-99.99,,,0.00,weatherlink.com 1.10,2013-08-21 07:29:00,
2013-08-21 03:44:00,61.6,62.0,30.05,WSW,253,0.0,-999.0,100,-99.99,,,0.00,weatherlink.com 1.10,2013-08-21 07:44:00,
2013-08-21 03:59:00,61.8,62.0,30.04,WSW,253,0.0,-999.0,100,-99.99,,,0.00,weatherlink.com 1.10,2013-08-21 07:59:00,
2013-08-21 04:14:00,61.6,62.0,30.04,WSW,253,0.0,-999.0,100,-99.99,,,0.00,weatherlink.com 1.10,2013-08-21 08:14:00,
2013-08-21 04:29:00,61.3,61.0,30.05,WSW,251,0.0,-999.0,100,-99.99,,,0.00,weatherlink.com 1.10,2013-08-21 08:29:00,
2013-08-21 04:44:00,61.5,62.0,30.05,WSW,253,0.0,-999.0,100,-99.99,,,0.00,weatherlink.com 1.10,2013-08-21 08:44:00,
2013-08-21 04:59:00,61.5,62.0,30.05,WSW,253,0.0,-999.0,100,-99.99,,,0.00,weatherlink.com 1.10,2013-08-21 08:59:00,
2013-08-21 05:14:00,61.3,61.0,30.06,WSW,253,0.0,-999.0,100,-99.99,,,0.00,weatherlink.com 1.10,2013-08-21 09:14:00,
2013-08-21 05:29:00,61.8,62.0,30.07,WSW,253,0.0,-999.0,100,-99.99,,,0.00,weatherlink.com 1.10,2013-08-21 09:29:00,
2013-08-21 05:44:00,61.6,62.0,30.07,WSW,253,0.0,-999.0,100,-99.99,,,0.00,weatherlink.com 1.10,2013-08-21 09:44:00,
2013-08-21 05:59:00,61.6,62.0,30.07,WSW,253,0.0,-999.0,100,-99.99,,,0.00,weatherlink.com 1.10,2013-08-21 09:59:00,
2013-08-21 06:14:00,61.8,62.0,30.07,WSW,253,0.0,-999.0,100,-99.99,,,0.00,weatherlink.com 1.10,2013-08-21 10:14:00,
2013-08-21 06:29:00,61.6,62.0,30.09,WSW,253,0.0,-999.0,100,-99.99,,,0.00,weatherlink.com 1.10,2013-08-21 10:29:00,
2013-08-21 06:44:00,61.8,62.0,30.10,WSW,253,0.0,-999.0,100,-99.99,,,0.00,weatherlink.com 1.10,2013-08-21 10:44:00,
2013-08-21 06:59:00,62.0,62.0,30.11,WSW,253,0.0,-999.0,100,-99.99,,,0.00,weatherlink.com 1.10,2013-08-21 10:59:00,
2013-08-21 07:14:00,62.1,62.0,30.11,WSW,253,0.0,-999.0,100,-99.99,,,0.00,weatherlink.com 1.10,2013-08-21 11:14:00,
2013-08-21 07:29:00,62.1,62.0,30.12,WSW,253,0.0,-999.0,100,-99.99,,,0.00,weatherlink.com 1.10,2013-08-21 11:29:00,
2013-08-21 07:44:00,62.3,62.0,30.12,WSW,251,0.0,-999.0,100,-99.99,,,0.00,weatherlink.com 1.10,2013-08-21 11:44:00,
2013-08-21 07:59:00,62.7,63.0,30.12,WSW,251,0.0,-999.0,100,-99.99,,,0.00,weatherlink.com 1.10,2013-08-21 11:59:00,
2013-08-21 08:14:00,63.4,63.0,30.12,WSW,251,0.0,-999.0,100,-99.99,,,0.00,weatherlink.com 1.10,2013-08-21 12:14:00,
2013-08-21 08:29:00,63.9,64.0,30.11,WSW,253,0.0,-999.0,100,-99.99,,,0.00,weatherlink.com 1.10,2013-08-21 12:29:00,
2013-08-21 08:44:00,64.0,64.0,30.11,WSW,251,0.0,-999.0,100,-99.99,,,0.00,weatherlink.com 1.10,2013-08-21 12:44:00,
2013-08-21 08:59:00,64.2,64.0,30.10,WSW,253,0.0,-999.0,100,-99.99,,,0.00,weatherlink.com 1.10,2013-08-21 12:59:00,
2013-08-21 09:14:00,64.7,65.0,30.11,WSW,253,0.0,-999.0,100,-99.99,,,0.00,weatherlink.com 1.10,2013-08-21 13:14:00,
2013-08-21 09:29:00,64.8,65.0,30.11,WSW,253,0.0,-999.0,100,-99.99,,,0.00,weatherlink.com 1.10,2013-08-21 13:29:00,
2013-08-21 09:44:00,66.0,66.0,30.11,WSW,251,0.0,-999.0,100,-99.99,,,0.00,weatherlink.com 1.10,2013-08-21 13:44:00,
2013-08-21 09:59:00,66.8,67.0,30.12,WSW,251,0.0,-999.0,100,-99.99,,,0.00,weatherlink.com 1.10,2013-08-21 13:59:00,
2013-08-21 10:14:00,66.8,66.0,30.13,West,260,0.0,-999.0,97,-99.99,,,0.00,weatherlink.com 1.10,2013-08-21 14:14:00,
2013-08-21 10:29:00,67.1,66.0,30.14,North,0,0.0,-999.0,97,-99.99,,,0.00,weatherlink.com 1.10,2013-08-21 14:29:00,
2013-08-21 10:44:00,67.4,66.0,30.14,North,0,0.0,-999.0,96,-99.99,,,0.00,weatherlink.com 1.10,2013-08-21 14:44:00,
2013-08-21 10:59:00,67.9,67.0,30.15,North,354,0.0,-999.0,95,-99.99,,,0.00,weatherlink.com 1.10,2013-08-21 14:59:00,
2013-08-21 11:14:00,68.6,67.0,30.14,North,354,0.0,-999.0,94,-99.99,,,0.00,weatherlink.com 1.10,2013-08-21 15:14:00,
2013-08-21 11:29:00,69.6,67.0,30.14,North,0,0.0,-999.0,92,-99.99,,,0.00,weatherlink.com 1.10,2013-08-21 15:29:00,
2013-08-21 11:44:00,69.4,67.0,30.13,NE,48,0.0,-999.0,92,-99.99,,,0.00,weatherlink.com 1.10,2013-08-21 15:44:00,
2013-08-21 11:59:00,70.4,67.0,30.12,NE,48,0.0,-999.0,90,-99.99,,,0.00,weatherlink.com 1.10,2013-08-21 15:59:00,
2013-08-21 12:14:00,71.3,69.0,30.11,NE,48,0.0,-999.0,92,-99.99,,,0.00,weatherlink.com 1.10,2013-08-21 16:14:00,
2013-08-21 12:29:00,72.1,69.0,30.10,NE,48,0.0,-999.0,89,-99.99,,,0.00,weatherlink.com 1.10,2013-08-21 16:29:00,
2013-08-21 12:44:00,72.0,68.0,30.10,NNW,340,0.0,-999.0,88,-99.99,,,0.00,weatherlink.com 1.10,2013-08-21 16:44:00,
2013-08-21 12:59:00,71.6,64.0,30.10,WSW,239,0.0,-999.0,77,-99.99,,,0.00,weatherlink.com 1.10,2013-08-21 16:59:00,
2013-08-21 13:14:00,72.3,65.0,30.10,North,11,0.0,-999.0,77,-99.99,,,0.00,weatherlink.com 1.10,2013-08-21 17:14:00,
2013-08-21 13:29:00,72.5,65.0,30.09,NNE,17,0.0,-999.0,77,-99.99,,,0.00,weatherlink.com 1.10,2013-08-21 17:29:00,
2013-08-21 13:44:00,72.5,66.0,30.09,South,184,0.0,-999.0,79,-99.99,,,0.00,weatherlink.com 1.10,2013-08-21 17:44:00,
2013-08-21 13:59:00,72.7,66.0,30.09,WNW,292,0.0,-999.0,79,-99.99,,,0.00,weatherlink.com 1.10,2013-08-21 17:59:00,
2013-08-21 14:15:00,73.3,68.0,30.08,WNW,294,0.0,-999.0,83,-99.99,,,0.00,weatherlink.com 1.10,2013-08-21 18:15:00,
2013-08-21 14:30:00,73.5,69.0,30.08,NW,305,0.0,-999.0,85,-99.99,,,0.00,weatherlink.com 1.10,2013-08-21 18:30:00,
2013-08-21 14:45:00,74.4,69.0,30.06,NW,311,0.0,-999.0,83,-99.99,,,0.00,weatherlink.com 1.10,2013-08-21 18:45:00,
2013-08-21 15:00:00,75.1,70.0,30.06,NE,41,0.0,-999.0,83,-99.99,,,0.00,weatherlink.com 1.10,2013-08-21 19:00:00,
2013-08-21 15:15:00,75.6,69.0,30.05,NW,322,1.0,-999.0,79,-99.99,,,0.00,weatherlink.com 1.10,2013-08-21 19:15:00,
2013-08-21 15:30:00,75.6,68.0,30.05,South,169,0.0,-999.0,78,-99.99,,,0.00,weatherlink.com 1.10,2013-08-21 19:30:00,
2013-08-21 15:45:00,75.6,68.0,30.05,South,171,0.0,-999.0,76,-99.99,,,0.00,weatherlink.com 1.10,2013-08-21 19:45:00,
2013-08-21 16:00:00,75.3,68.0,30.05,WNW,301,0.0,-999.0,77,-99.99,,,0.00,weatherlink.com 1.10,2013-08-21 20:00:00,
2013-08-21 16:15:00,74.4,68.0,30.06,West,260,0.0,-999.0,80,-99.99,,,0.00,weatherlink.com 1.10,2013-08-21 20:15:00,
2013-08-21 16:30:00,73.5,67.0,30.06,East,88,0.0,-999.0,79,-99.99,,,0.00,weatherlink.com 1.10,2013-08-21 20:30:00,
2013-08-21 16:45:00,73.5,67.0,30.05,NNW,346,0.0,-999.0,81,-99.99,,,0.00,weatherlink.com 1.10,2013-08-21 20:45:00,
2013-08-21 17:00:00,73.2,67.0,30.05,North,357,0.0,-999.0,81,-99.99,,,0.00,weatherlink.com 1.10,2013-08-21 21:00:00,
2013-08-21 17:15:00,72.3,67.0,30.05,West,271,0.0,-999.0,84,-99.99,,,0.00,weatherlink.com 1.10,2013-08-21 21:15:00,
2013-08-21 17:30:00,72.3,67.0,30.04,NNW,332,0.0,-999.0,84,-99.99,,,0.00,weatherlink.com 1.10,2013-08-21 21:30:00,
2013-08-21 17:45:00,72.0,67.0,30.03,South,186,0.0,-999.0,84,-99.99,,,0.00,weatherlink.com 1.10,2013-08-21 21:45:00,
2013-08-21 18:00:00,72.1,68.0,30.02,South,186,0.0,-999.0,86,-99.99,,,0.00,weatherlink.com 1.10,2013-08-21 22:00:00,
2013-08-21 18:15:00,72.5,69.0,30.01,South,186,0.0,-999.0,87,-99.99,,,0.00,weatherlink.com 1.10,2013-08-21 22:15:00,
2013-08-21 18:30:00,72.5,69.0,30.00,South,186,0.0,-999.0,87,-99.99,,,0.00,weatherlink.com 1.10,2013-08-21 22:30:00,
2013-08-21 18:45:00,72.0,68.0,30.02,South,186,0.0,-999.0,87,-99.99,,,0.00,weatherlink.com 1.10,2013-08-21 22:45:00,
2013-08-21 19:00:00,71.6,68.0,30.02,South,186,0.0,-999.0,87,-99.99,,,0.00,weatherlink.com 1.10,2013-08-21 23:00:00,
2013-08-21 19:15:00,70.9,68.0,30.03,South,186,0.0,-999.0,91,-99.99,,,0.00,weatherlink.com 1.10,2013-08-21 23:15:00,
2013-08-21 19:30:00,70.3,68.0,30.04,South,186,0.0,-999.0,92,-99.99,,,0.00,weatherlink.com 1.10,2013-08-21 23:30:00,
2013-08-21 19:45:00,69.9,68.0,30.04,South,186,0.0,-999.0,93,-99.99,,,0.00,weatherlink.com 1.10,2013-08-21 23:45:00,
2013-08-21 20:00:00,69.4,67.0,30.04,South,186,0.0,-999.0,93,-99.99,,,0.00,weatherlink.com 1.10,2013-08-22 00:00:00,
2013-08-21 20:15:00,69.1,68.0,30.04,South,186,0.0,-999.0,95,-99.99,,,0.00,weatherlink.com 1.10,2013-08-22 00:15:00,
2013-08-21 20:30:00,68.8,67.0,30.03,South,186,0.0,-999.0,95,-99.99,,,0.00,weatherlink.com 1.10,2013-08-22 00:30:00,
2013-08-21 20:45:00,68.4,67.0,30.04,South,186,0.0,-999.0,95,-99.99,,,0.00,weatherlink.com 1.10,2013-08-22 00:45:00,
2013-08-21 21:00:00,68.1,68.0,30.03,South,186,0.0,-999.0,98,-99.99,,,0.00,weatherlink.com 1.10,2013-08-22 01:00:00,
2013-08-21 21:15:00,67.6,67.0,30.04,South,186,0.0,-999.0,98,-99.99,,,0.00,weatherlink.com 1.10,2013-08-22 01:15:00,
2013-08-21 21:30:00,67.1,67.0,30.05,South,186,0.0,-999.0,98,-99.99,,,0.00,weatherlink.com 1.10,2013-08-22 01:30:00,
2013-08-21 21:45:00,66.6,66.0,30.05,South,186,0.0,-999.0,98,-99.99,,,0.00,weatherlink.com 1.10,2013-08-22 01:45:00,
2013-08-21 22:00:00,66.4,66.0,30.06,South,186,0.0,-999.0,99,-99.99,,,0.00,weatherlink.com 1.10,2013-08-22 02:00:00,
2013-08-21 22:15:00,66.1,66.0,30.06,South,186,0.0,-999.0,100,-99.99,,,0.00,weatherlink.com 1.10,2013-08-22 02:15:00,
2013-08-21 22:30:00,66.0,66.0,30.06,South,186,0.0,-999.0,100,-99.99,,,0.00,weatherlink.com 1.10,2013-08-22 02:30:00,
2013-08-21 22:45:00,65.6,66.0,30.06,South,186,0.0,-999.0,100,-99.99,,,0.00,weatherlink.com 1.10,2013-08-22 02:45:00,
2013-08-21 23:00:00,65.5,66.0,30.06,South,186,0.0,-999.0,100,-99.99,,,0.00,weatherlink.com 1.10,2013-08-22 03:00:00,
2013-08-21 23:15:00,65.0,65.0,30.06,South,186,0.0,-999.0,100,-99.99,,,0.00,weatherlink.com 1.10,2013-08-22 03:15:00,
2013-08-21 23:30:00,64.8,65.0,30.05,South,186,0.0,-999.0,100,-99.99,,,0.00,weatherlink.com 1.10,2013-08-22 03:30:00,
2013-08-21 23:45:00,64.8,65.0,30.05,South,186,0.0,-999.0,100,-99.99,,,0.00,weatherlink.com 1.10,2013-08-22 03:45:00,